Regional Weather Roundup
Issued by NWS Green Bay, WI

Home | Current Version | Previous Version | Text Only | Print | Product List | Glossary On
Versions: 1 2 3 4 5 6 7 8 9 10 11 12 13 14 15 16 17 18 19 20 21 22 23 24 25 26 27 28 29 30 31 32 33 34 35 36 37 38 39 40 41 42 43 44 45 46 47 48 49 50
000
ASUS43 KGRB 280900
RWRGRB

NORTH-CENTRAL AND NORTHEAST WISCONSIN REGIONAL WEATHER ROUNDUP
NATIONAL WEATHER SERVICE GREEN BAY WI
400 AM CDT TUE JUL 28 2015

WIZ005-009-010>012-018-019-281000-
NORTH CENTRAL WISCONSIN

CITY           SKY/WX    TMP DP  RH WIND       PRES   REMARKS
IRONWOOD       CLEAR     70  63  78 S7        29.92F
MANITOWISH WTR NOT AVBL
ARBOR VITAE    NOT AVBL
EAGLE RIVER    NOT AVBL
LAND O LAKES   NOT AVBL
RHINELANDER    CLEAR     64  60  87 SE3       30.01F
PHILLIPS       CLEAR     68  62  81 S7        29.97F
ANTIGO         NOT AVBL
TOMAHAWK       NOT AVBL
MERRILL        NOT AVBL
$$

WIZ013-073-281000-
NORTHEAST WISCONSIN

CITY           SKY/WX    TMP DP  RH WIND       PRES   REMARKS
IRON MOUNTAIN  FOG       60  59  96 CALM      30.00S VSB 3/4
MARINETTE      CLEAR     64  59  82 SW3       29.99F
$$

WIZ017-030-035>037-045-281000-
CENTRAL WISCONSIN

CITY           SKY/WX    TMP DP  RH WIND       PRES   REMARKS
MEDFORD        NOT AVBL
WAUSAU         CLEAR     64  61  90 E6        29.98F
MOSINEE        NOT AVBL
MARSHFIELD     CLEAR     68  60  75 S6        29.98F
WISC RAPIDS    CLEAR     68  61  78 S5        29.99F
STEVENS POINT  NOT AVBL
WAUPACA        NOT AVBL
SHAWANO        NOT AVBL
CLINTONVILLE   PTCLDY    61  59  94 CALM      30.00S FOG
$$

WIZ038-039-048-051-281000-
FOX VALLEY

CITY           SKY/WX    TMP DP  RH WIND       PRES   REMARKS
NWS GREEN BAY  FOG       60  59  96 CALM      30.00F VSB 1/2
APPLETON       NOT AVBL
OSHKOSH        CLEAR     63  60  90 S5        29.99F
FOND DU LAC    CLEAR     66  63  90 SE8       30.00F
$$

WIZ022-050-052-281000-
EAST CENTRAL WISCONSIN

CITY           SKY/WX    TMP DP  RH WIND       PRES   REMARKS
STURGEON BAY   CLEAR     64  57  77 S7        30.03F
MANITOWOC      NOT AVBL
SHEBOYGAN      PTCLDY    61  59  93 CALM      30.02F FOG
$$

LMZ563-521-522-541>543-281000-
LAKESHORE

STATION/POSITION TIME  TEMP    WIND        PRES    VSBY  WAVE
                       AIR SEA DIR/SP/G                  HT/PER
                 (UTC) (F)     (DEG/KT/KT) (MB)    (MI)  (FT/S)
SHEBOYGAN LKSHOR 0800   70     290/  4/  5 1016.9F
KEWAUNEE LKSHORE 0800   64     290/  3/  4 1015.9F
NORTHPORT PIER   0800   68     180/  3/  6 1016.3F
N MID LAKE BUOY  0750   71 69  200/  6/  8 1016.0F         0
SISTER BAY LKSHO 0814   69     170/  9/ 12   N/A
CHAMBERS ISLAND  0840   70     150/  2/  5 1015.6F
MENOMINEE LKSHOR 0800   73     180/  7/  9 1016.8F
$$


USA.gov is the U.S. government's official web portal to all federal, state and local government web resources and services.